QPF
0.00 0.00 0.00 0.00 0.00 0.00 0.00 0.00 0.00 0.00 0.00 0.00 0.00 0.00 0.00 0.00 0.00 0.00 0.00 0.02 0.04 0.09 0.09 0.04 0.01 0.00 0.00 0.00 0.00 0.02 0.02 0.01 0.02 0.02 0.03 0.08 0.07 0.03 0.00 0.00 0.00 0.00 0.00 0.00
0.00 0.00 0.00 0.00 0.01 0.01 0.02 0.00 0.00 0.00 0.00 0.00 0.00 0.00 0.00 0.00 0.00 0.00 0.00 0.01 0.04 0.12 0.05 0.02 0.00 0.00 0.00 0.00 0.00 0.00 0.01 0.01 0.01 0.00 0.01 0.01 0.03 0.01 0.00 0.00 0.00 0.00 0.00 0.00
0.00 0.00 0.00 0.00 0.00 0.00 0.00 0.01 0.00 0.00 0.00 0.00 0.00 0.00 0.00 0.00 0.00 0.00 0.00 0.01 0.06 0.11 0.04 0.02 0.01 0.00 0.01 0.00 0.01 0.01 0.00 0.01 0.02 0.01 0.03 0.03 0.02 0.02 0.01 0.00 0.00 0.00 0.00 0.00
0.00 0.00 0.00 0.00 0.00 0.00 0.00 0.00 0.00 0.00 0.00 0.00 0.00 0.00 0.00 0.00 0.00 0.01 0.04 0.14 0.14 0.12 0.06 0.01 0.01 0.02 0.01 0.01 0.00 0.02 0.00 0.01 0.02 0.03 0.02 0.05 0.04 0.01 0.00 0.00 0.00 0.00 0.00 0.00
0.00 0.00 0.00 0.00 0.00 0.00 0.00 0.00 0.00 0.00 0.00 0.00 0.00 0.00 0.00 0.00 0.01 0.01 0.01 0.05 0.12 0.10 0.06 0.01 0.05 0.09 0.06 0.05 0.03 0.02 0.03 0.00 0.03 0.06 0.03 0.03 0.07 0.12 0.05 0.01 0.01 0.01 0.00 0.00
0.00 0.00 0.00 0.00 0.00 0.00 0.00 0.00 0.00 0.00 0.00 0.00 0.00 0.00 0.00 0.00 0.01 0.00 0.00 0.01 0.07 0.14 0.10 0.07 0.06 0.02 0.04 0.03 0.01 0.01 0.05 0.03 0.01 0.02 0.03 0.02 0.02 0.11 0.26 0.14 0.03 0.02 0.01 0.01
0.00 0.00 0.00 0.00 0.00 0.00 0.00 0.00 0.00 0.00 0.00 0.00 0.00 0.00 0.00 0.00 0.02 0.01 0.00 0.00 0.01 0.08 0.10 0.05 0.02 0.03 0.01 0.00 0.00 0.00 0.00 0.03 0.02 0.01 0.01 0.01 0.03 0.02 0.12 0.25 0.20 0.07 0.03 0.02
0.00 0.00 0.00 0.00 0.00 0.00 0.00 0.00 0.00 0.00 0.00 0.01 0.00 0.00 0.00 0.00 0.00 0.00 0.00 0.00 0.00 0.00 0.04 0.03 0.04 0.09 0.02 0.01 0.00 0.00 0.00 0.03 0.01 0.01 0.01 0.01 0.04 0.04 0.02 0.08 0.16 0.27 0.26 0.20
0.00 0.00 0.00 0.00 0.00 0.00 0.00 0.00 0.00 0.00 0.00 0.00 0.00 0.00 0.00 0.00 0.00 0.00 0.00 0.00 0.00 0.00 0.00 0.00 0.01 0.07 0.04 0.01 0.00 0.02 0.02 0.00 0.01 0.01 0.02 0.03 0.02 0.04 0.06 0.07 0.09 0.08 0.13 0.13
0.00 0.00 0.00 0.00 0.00 0.00 0.00 0.00 0.00 0.00 0.00 0.00 0.00 0.00 0.00 0.00 0.00 0.00 0.00 0.00 0.00 0.00 0.00 0.00 0.00 0.01 0.01 0.02 0.05 0.07 0.06 0.03 0.01 0.01 0.02 0.02 0.02 0.02 0.04 0.08 0.08 0.08 0.06 0.07
0.00 0.00 0.00 0.00 0.00 0.00 0.00 0.00 0.00 0.00 0.00 0.00 0.00 0.01 0.00 0.00 0.00 0.00 0.00 0.00 0.00 0.00 0.00 0.00 0.00 0.00 0.00 0.00 0.00 0.04 0.10 0.09 0.04 0.00 0.01 0.01 0.02 0.02 0.03 0.02 0.03 0.02 0.02 0.03
0.00 0.00 0.00 0.00 0.00 0.00 0.00 0.00 0.00 0.00 0.00 0.00 0.00 0.00 0.00 0.00 0.00 0.00 0.00 0.00 0.00 0.00 0.00 0.00 0.00 0.00 0.00 0.00 0.00 0.00 0.04 0.11 0.12 0.03 0.00 0.00 0.00 0.01 0.03 0.02 0.01 0.02 0.03 0.04
0.00 0.00 0.00 0.00 0.00 0.00 0.00 0.00 0.00 0.00 0.00 0.00 0.00 0.00 0.00 0.00 0.00 0.00 0.00 0.00 0.00 0.00 0.00 0.00 0.00 0.00 0.00 0.00 0.00 0.00 0.00 0.03 0.10 0.09 0.06 0.04 0.03 0.04 0.04 0.04 0.07 0.09 0.06 0.05
0.00 0.00 0.00 0.00 0.00 0.00 0.00 0.00 0.00 0.00 0.00 0.00 0.00 0.00 0.00 0.00 0.00 0.00 0.00 0.00 0.00 0.00 0.00 0.00 0.00 0.00 0.00 0.00 0.00 0.00 0.00 0.01 0.08 0.11 0.10 0.11 0.09 0.06 0.05 0.03 0.03 0.06 0.07 0.08
0.00 0.00 0.00 0.00 0.00 0.00 0.00 0.00 0.00 0.00 0.00 0.00 0.00 0.00 0.00 0.00 0.00 0.00 0.00 0.00 0.00 0.00 0.00 0.00 0.00 0.00 0.00 0.00 0.00 0.00 0.00 0.00 0.00 0.04 0.04 0.03 0.02 0.03 0.02 0.01 0.01 0.02 0.03 0.04
0.00 0.00 0.00 0.00 0.00 0.00 0.00 0.00 0.00 0.00 0.00 0.00 0.00 0.00 0.00 0.00 0.00 0.00 0.00 0.00 0.00 0.00 0.00 0.00 0.00 0.00 0.00 0.00 0.00 0.00 0.00 0.00 0.00 0.00 0.00 0.00 0.00 0.00 0.00 0.00 0.00 0.00 0.00 0.00
0.00 0.00 0.00 0.00 0.00 0.00 0.00 0.00 0.00 0.00 0.00 0.00 0.00 0.00 0.00 0.00 0.00 0.00 0.00 0.00 0.00 0.00 0.00 0.00 0.00 0.00 0.00 0.00 0.00 0.00 0.00 0.00 0.00 0.00 0.00 0.00 0.00 0.00 0.00 0.00 0.00 0.00 0.00 0.00
0.00 0.00 0.00 0.00 0.00 0.00 0.00 0.00 0.00 0.00 0.00 0.00 0.00 0.00 0.00 0.00 0.00 0.00 0.00 0.00 0.00 0.00 0.00 0.00 0.00 0.00 0.00 0.00 0.00 0.00 0.00 0.00 0.00 0.00 0.00 0.00 0.00 0.00 0.00 0.00 0.00 0.00 0.00 0.00
0.00 0.00 0.00 0.00 0.00 0.00 0.00 0.00 0.00 0.00 0.00 0.00 0.00 0.00 0.00 0.00 0.00 0.00 0.00 0.00 0.00 0.00 0.00 0.00 0.00 0.00 0.00 0.00 0.00 0.00 0.00 0.00 0.00 0.00 0.00 0.00 0.00 0.00 0.00 0.00 0.00 0.00 0.00 0.00
0.00 0.00 0.00 0.00 0.00 0.00 0.00 0.00 0.00 0.00 0.00 0.00 0.00 0.00 0.00 0.00 0.00 0.00 0.00 0.00 0.00 0.00 0.00 0.00 0.00 0.00 0.00 0.00 0.00 0.00 0.00 0.00 0.00 0.00 0.00 0.00 0.00 0.00 0.00 0.00 0.00 0.00 0.00 0.00
0.00 0.00 0.00 0.00 0.00 0.00 0.00 0.00 0.00 0.00 0.00 0.00 0.00 0.00 0.00 0.00 0.00 0.00 0.00 0.00 0.00 0.00 0.00 0.00 0.00 0.00 0.00 0.00 0.00 0.00 0.00 0.00 0.00 0.00 0.00 0.00 0.00 0.00 0.00 0.00 0.00 0.00 0.00 0.00
0.00 0.00 0.00 0.00 0.00 0.00 0.00 0.00 0.00 0.00 0.00 0.00 0.00 0.00 0.00 0.00 0.00 0.00 0.00 0.00 0.00 0.00 0.00 0.00 0.00 0.00 0.00 0.00 0.00 0.00 0.00 0.00 0.00 0.00 0.00 0.00 0.00 0.00 0.00 0.00 0.00 0.00 0.00 0.00
0.00 0.00 0.00 0.00 0.00 0.00 0.00 0.00 0.00 0.00 0.00 0.00 0.00 0.00 0.00 0.00 0.00 0.00 0.00 0.00 0.00 0.00 0.00 0.00 0.00 0.00 0.00 0.00 0.00 0.00 0.00 0.00 0.00 0.00 0.00 0.00 0.00 0.00 0.00 0.00 0.00 0.00 0.00 0.00
0.00 0.00 0.00 0.00 0.00 0.00 0.00 0.00 0.00 0.00 0.00 0.00 0.00 0.00 0.00 0.00 0.00 0.00 0.00 0.00 0.00 0.00 0.00 0.00 0.00 0.00 0.00 0.00 0.00 0.00 0.00 0.00 0.00 0.00 0.00 0.00 0.00 0.00 0.00 0.00 0.00 0.00 0.00 0.00
0.00 0.00 0.00 0.00 0.00 0.00 0.00 0.00 0.00 0.00 0.00 0.00 0.00 0.00 0.00 0.00 0.00 0.00 0.00 0.00 0.00 0.00 0.00 0.00 0.00 0.00 0.00 0.00 0.00 0.00 0.00 0.00 0.00 0.00 0.00 0.00 0.00 0.00 0.00 0.00 0.00 0.00 0.00 0.00
0.00 0.00 0.00 0.00 0.00 0.00 0.00 0.00 0.00 0.00 0.00 0.00 0.00 0.00 0.00 0.00 0.00 0.00 0.00 0.00 0.00 0.00 0.00 0.00 0.00 0.00 0.00 0.00 0.00 0.00 0.00 0.00 0.00 0.00 0.00 0.00 0.00 0.00 0.00 0.00 0.00 0.00 0.00 0.00
MSLP
1014.28 1014.41 1013.82 1013.21 1012.85 1012.83 1012.68 1012.36 1011.46 1010.17 1009.31 1008.86 1007.74 1007.07 1005.97 1005.31 1004.51 1004.23 1003.69 1003.41 1003.35 1003.11 1003.02 1003.75 1003.86 1004.46 1006.07 1007.25 1007.08 1007.41 1007.23 1006.92 1007.69 1008.56 1008.53 1009.61 1010.08 1010.77 1011.17 1011.51 1011.77 1012.53 1013.61 1014.26
1014.18 1013.48 1012.55 1012.21 1012.16 1012.13 1011.83 1011.70 1010.91 1009.73 1008.93 1008.61 1007.63 1007.06 1006.61 1004.77 1003.72 1003.48 1003.51 1002.95 1002.58 1002.48 1001.94 1002.82 1003.89 1004.41 1005.78 1006.53 1006.18 1006.98 1007.55 1007.68 1007.94 1008.54 1008.52 1008.74 1010.07 1010.01 1010.70 1011.23 1011.68 1012.50 1013.24 1013.97
1013.62 1012.62 1011.97 1011.80 1011.76 1011.78 1011.52 1011.16 1010.78 1010.26 1008.93 1007.84 1007.78 1007.15 1006.54 1005.05 1004.16 1003.69 1002.89 1002.07 1002.17 1002.53 1003.00 1003.59 1004.27 1005.16 1005.79 1004.49 1005.54 1006.95 1007.02 1007.71 1007.94 1008.10 1008.51 1009.04 1009.93 1010.30 1011.07 1011.57 1011.82 1012.38 1012.94 1013.69
1013.12 1012.25 1011.86 1011.72 1011.82 1011.83 1011.49 1010.78 1010.79 1010.33 1010.08 1009.46 1008.25 1008.05 1007.34 1006.35 1005.17 1004.28 1003.82 1003.05 1002.24 1002.77 1003.34 1003.65 1004.30 1004.53 1004.33 1004.18 1006.27 1006.55 1006.97 1007.40 1007.63 1007.84 1007.97 1008.28 1008.99 1010.06 1011.02 1011.04 1011.85 1012.31 1012.71 1013.45
1013.08 1012.33 1011.90 1011.88 1011.63 1011.48 1011.37 1010.82 1010.89 1010.67 1010.41 1010.17 1008.99 1008.87 1008.82 1007.68 1006.84 1005.98 1005.15 1004.03 1003.26 1002.79 1002.95 1004.00 1004.68 1004.55 1005.03 1005.08 1006.34 1006.80 1007.06 1007.08 1007.14 1007.49 1007.79 1008.32 1008.61 1009.37 1010.33 1011.43 1012.04 1012.19 1012.83 1013.23
1013.28 1012.44 1012.08 1011.81 1011.28 1011.27 1011.08 1010.77 1010.67 1010.67 1010.92 1011.14 1010.31 1009.81 1009.81 1008.82 1008.06 1006.88 1006.08 1005.00 1004.06 1003.56 1003.71 1004.08 1004.58 1004.57 1005.42 1006.46 1006.96 1007.21 1006.52 1006.58 1006.72 1006.90 1007.59 1008.18 1008.65 1009.32 1009.93 1010.80 1011.79 1012.24 1012.77 1013.27
1014.29 1013.22 1012.57 1012.15 1011.69 1011.26 1011.39 1011.26 1011.69 1012.05 1012.11 1011.98 1011.47 1011.17 1011.84 1010.25 1008.85 1008.65 1007.91 1006.70 1005.38 1004.42 1004.12 1004.26 1004.68 1005.86 1006.22 1006.79 1006.98 1006.90 1006.95 1006.54 1006.49 1006.39 1007.37 1008.12 1008.61 1009.34 1010.34 1010.86 1011.31 1011.81 1012.66 1013.16
1015.40 1014.31 1013.40 1012.61 1012.50 1012.45 1012.12 1012.26 1012.74 1012.87 1012.63 1012.76 1012.07 1012.69 1012.52 1011.25 1010.34 1009.26 1008.63 1007.62 1006.74 1005.81 1005.28 1005.55 1005.74 1006.46 1006.68 1007.04 1007.07 1007.27 1007.06 1006.34 1005.84 1006.87 1007.56 1008.21 1009.13 1009.61 1010.00 1010.99 1011.35 1011.61 1012.10 1012.42
1016.04 1015.13 1014.10 1013.35 1012.87 1012.87 1012.60 1013.05 1013.48 1013.50 1013.53 1013.66 1014.45 1013.46 1012.36 1012.05 1011.25 1010.59 1009.33 1008.47 1008.00 1007.52 1007.09 1006.52 1006.49 1006.63 1006.88 1007.20 1007.27 1007.15 1007.38 1007.52 1007.31 1007.43 1008.16 1009.08 1009.40 1010.07 1010.08 1011.06 1011.60 1012.09 1012.24 1012.68
1016.44 1015.96 1015.31 1014.31 1013.65 1013.42 1013.58 1013.84 1014.18 1014.46 1015.22 1015.63 1015.58 1014.69 1014.34 1013.50 1012.70 1011.59 1010.57 1009.58 1009.00 1008.42 1008.10 1008.12 1007.95 1007.50 1007.53 1007.37 1007.30 1007.55 1007.67 1008.10 1007.97 1008.09 1008.54 1009.04 1009.61 1010.09 1010.57 1011.34 1012.00 1012.37 1012.75 1012.97
1016.86 1016.99 1016.76 1015.83 1015.56 1015.50 1014.84 1015.23 1015.54 1016.09 1016.45 1016.57 1016.48 1016.13 1015.35 1014.32 1013.52 1012.81 1011.81 1011.09 1010.15 1009.45 1009.22 1008.96 1008.82 1008.40 1008.21 1007.52 1007.35 1007.82 1008.07 1008.48 1008.77 1008.91 1009.19 1009.57 1009.87 1009.98 1010.40 1011.27 1011.83 1012.11 1012.75 1013.20
1017.63 1018.03 1018.30 1017.78 1016.67 1016.23 1016.38 1016.61 1016.82 1017.33 1018.02 1017.57 1017.08 1017.02 1015.86 1014.84 1013.92 1013.28 1012.73 1011.93 1011.35 1010.90 1010.58 1010.16 1009.65 1009.31 1008.91 1008.51 1008.36 1008.31 1008.36 1008.18 1008.59 1008.97 1009.36 1009.78 1010.00 1010.32 1010.61 1011.18 1011.61 1012.13 1012.80 1013.16
1018.18 1019.31 1019.87 1019.02 1018.01 1017.15 1017.41 1017.32 1017.35 1017.77 1018.17 1018.60 1018.07 1017.35 1016.13 1015.36 1014.81 1014.48 1013.94 1013.26 1012.68 1012.13 1011.64 1011.19 1010.75 1010.15 1009.78 1009.15 1009.09 1009.04 1009.19 1009.10 1008.95 1009.11 1009.38 1009.69 1010.22 1010.74 1010.88 1011.09 1011.30 1011.73 1012.42 1012.78
1018.53 1020.20 1020.91 1020.70 1020.05 1019.39 1018.44 1017.77 1017.49 1017.76 1018.74 1018.59 1018.09 1017.35 1016.57 1016.23 1015.90 1015.55 1015.09 1014.59 1014.00 1013.74 1013.28 1012.68 1011.96 1011.54 1011.23 1010.75 1010.40 1010.30 1009.81 1009.73 1009.53 1009.57 1009.89 1010.00 1009.97 1010.91 1011.13 1011.25 1011.52 1011.65 1011.53 1011.59
1019.58 1021.39 1021.52 1021.07 1020.29 1019.39 1018.65 1018.00 1017.58 1017.90 1018.02 1018.05 1017.66 1017.15 1016.65 1016.60 1016.50 1016.24 1015.91 1015.43 1015.09 1014.83 1014.19 1013.93 1013.49 1013.26 1012.78 1012.39 1011.72 1011.32 1010.92 1010.77 1010.42 1010.25 1010.40 1010.79 1010.84 1011.02 1010.95 1011.30 1011.67 1011.86 1012.02 1012.08
1020.68 1021.93 1022.21 1021.74 1020.45 1019.58 1018.60 1017.66 1017.20 1017.15 1017.10 1017.13 1017.13 1016.78 1016.51 1016.27 1016.46 1016.70 1016.73 1016.48 1015.98 1015.60 1015.41 1015.36 1014.88 1014.55 1013.94 1013.54 1013.00 1012.69 1012.22 1011.88 1011.18 1011.03 1011.15 1011.69 1011.97 1011.88 1011.98 1011.48 1011.81 1012.46 1012.73 1012.81
1021.40 1022.41 1022.98 1022.48 1021.06 1019.73 1018.73 1016.89 1016.57 1016.40 1016.31 1016.45 1016.66 1016.38 1016.38 1016.21 1016.33 1016.59 1016.62 1016.68 1016.59 1016.45 1016.03 1015.70 1015.80 1015.48 1015.08 1014.55 1014.14 1013.75 1013.07 1012.37 1011.84 1011.88 1012.04 1012.02 1012.13 1012.25 1012.43 1012.43 1012.05 1012.67 1012.90 1012.94
1021.70 1022.67 1023.06 1022.95 1021.85 1020.12 1017.35 1016.19 1015.88 1016.06 1015.93 1015.91 1016.10 1016.18 1016.32 1016.21 1016.41 1016.77 1016.77 1016.71 1016.72 1016.70 1016.50 1016.30 1015.96 1015.62 1015.48 1014.97 1014.47 1014.00 1013.38 1013.11 1012.95 1012.77 1012.73 1012.54 1012.54 1012.67 1012.61 1012.67 1012.60 1012.73 1013.09 1013.30
1021.69 1022.41 1023.15 1023.10 1022.18 1019.46 1017.08 1016.14 1015.84 1015.95 1015.59 1015.52 1016.04 1016.30 1016.27 1016.24 1016.42 1016.67 1016.65 1016.53 1016.51 1016.54 1016.51 1016.31 1016.06 1015.89 1015.62 1015.34 1014.93 1014.70 1014.19 1013.90 1013.75 1013.76 1013.36 1013.21 1013.09 1013.12 1013.06 1013.12 1013.12 1013.33 1013.55 1013.90
1021.86 1022.34 1022.97 1023.11 1021.82 1019.16 1016.42 1015.62 1015.45 1015.68 1015.78 1015.18 1015.73 1016.28 1016.60 1016.78 1017.11 1016.64 1016.45 1016.42 1016.39 1016.36 1016.31 1016.32 1016.31 1016.12 1015.86 1015.47 1015.17 1014.96 1014.95 1014.82 1014.62 1014.21 1013.88 1013.57 1013.31 1013.46 1013.40 1013.33 1013.46 1013.39 1013.54 1013.83
1022.10 1022.53 1022.67 1022.36 1021.06 1018.06 1015.96 1015.61 1015.68 1016.04 1015.63 1015.06 1015.59 1016.07 1016.67 1016.79 1016.59 1016.57 1016.40 1016.24 1016.29 1016.38 1016.27 1016.20 1016.35 1016.47 1016.46 1016.12 1015.79 1015.64 1015.36 1015.15 1014.96 1014.52 1014.21 1013.89 1013.60 1013.47 1013.21 1013.25 1013.52 1013.47 1013.63 1013.78
1021.03 1021.62 1021.76 1021.23 1020.07 1017.59 1015.61 1015.93 1015.80 1014.79 1014.73 1014.98 1015.56 1015.87 1016.28 1016.20 1016.35 1016.37 1016.39 1016.35 1016.27 1016.20 1016.06 1016.14 1016.34 1016.58 1016.65 1016.63 1016.45 1016.33 1016.11 1015.80 1015.27 1014.79 1014.28 1013.90 1013.63 1013.46 1013.41 1013.58 1013.68 1013.70 1013.82 1014.01
1019.96 1019.22 1019.30 1019.15 1016.97 1015.35 1014.92 1014.19 1014.05 1014.35 1014.68 1015.06 1015.27 1015.53 1015.88 1016.16 1016.32 1016.39 1016.29 1016.41 1016.54 1016.41 1016.23 1016.15 1016.32 1016.48 1016.54 1016.58 1016.52 1016.65 1016.59 1016.24 1015.81 1015.34 1014.83 1014.32 1013.76 1013.55 1013.40 1013.39 1013.65 1013.92 1014.09 1014.29
1018.63 1018.16 1018.17 1017.65 1015.29 1014.86 1014.48 1014.04 1014.01 1014.15 1014.47 1014.67 1014.90 1015.27 1015.67 1016.03 1016.37 1016.42 1016.49 1016.62 1016.54 1016.36 1016.32 1016.13 1016.11 1016.36 1016.57 1016.55 1016.60 1016.62 1016.38 1016.02 1015.72 1015.40 1015.02 1014.53 1014.01 1013.57 1013.25 1013.28 1013.56 1013.79 1014.06 1014.25
1017.66 1017.68 1017.11 1016.45 1014.82 1014.35 1013.88 1013.50 1013.54 1014.09 1014.27 1014.67 1015.03 1015.30 1015.65 1015.99 1016.29 1016.37 1016.47 1016.56 1016.33 1016.19 1016.05 1016.16 1016.14 1016.17 1016.22 1016.36 1016.48 1016.54 1016.31 1015.98 1015.55 1015.34 1015.07 1014.83 1014.47 1014.14 1013.90 1013.65 1013.56 1013.54 1013.44 1013.52
1016.41 1015.52 1015.64 1014.41 1013.10 1013.20 1012.87 1012.54 1013.05 1013.96 1014.24 1014.48 1014.96 1015.43 1015.63 1015.85 1016.09 1016.18 1016.37 1016.13 1016.10 1016.00 1015.91 1015.90 1015.88 1016.00 1015.96 1015.94 1016.17 1016.32 1016.20 1015.93 1015.56 1015.33 1015.10 1014.91 1014.63 1014.36 1014.18 1014.04 1013.73 1013.51 1013.45 1013.28
Thickness
5524 5520 5527 5526 5536 5524 5522 5524 5530 5545 5555 5553 5558 5559 5564 5568 5569 5570 5574 5574 5577 5583 5593 5599 5613 5623 5628 5635 5643 5643 5653 5655 5662 5660 5669 5669 5671 5672 5677 5686 5689 5687 5682 5681
5530 5522 5535 5536 5532 5530 5530 5525 5530 5546 5555 5554 5557 5556 5559 5571 5575 5581 5577 5583 5589 5598 5614 5615 5616 5625 5635 5635 5645 5646 5644 5645 5653 5656 5664 5673 5670 5669 5675 5680 5681 5678 5677 5676
5520 5535 5540 5535 5525 5520 5522 5523 5528 5533 5549 5557 5555 5557 5557 5569 5577 5584 5591 5600 5602 5601 5605 5611 5617 5619 5625 5646 5646 5638 5641 5639 5647 5653 5657 5661 5661 5660 5658 5662 5667 5671 5671 5669
5533 5539 5532 5522 5513 5509 5499 5521 5522 5528 5528 5524 5556 5545 5551 5561 5571 5581 5583 5593 5605 5606 5609 5617 5618 5627 5640 5648 5632 5637 5638 5639 5645 5650 5657 5661 5660 5657 5657 5664 5660 5662 5665 5663
5528 5530 5520 5507 5506 5503 5499 5510 5512 5519 5522 5530 5547 5544 5544 5550 5558 5566 5576 5588 5602 5612 5613 5610 5612 5625 5630 5639 5629 5628 5631 5637 5643 5645 5651 5653 5656 5657 5651 5647 5644 5653 5653 5656
5530 5529 5518 5505 5499 5494 5499 5504 5511 5516 5516 5520 5532 5540 5531 5536 5548 5561 5570 5582 5596 5607 5610 5613 5616 5625 5624 5617 5616 5617 5627 5635 5640 5643 5645 5646 5645 5645 5644 5643 5639 5643 5644 5645
5511 5519 5504 5495 5482 5491 5492 5484 5480 5477 5476 5525 5523 5526 5506 5532 5546 5549 5556 5569 5588 5601 5610 5616 5619 5609 5613 5613 5613 5616 5620 5628 5636 5643 5638 5638 5641 5642 5636 5635 5636 5638 5634 5634
5484 5474 5499 5492 5488 5483 5486 5496 5490 5493 5490 5516 5522 5507 5503 5528 5536 5545 5555 5566 5583 5588 5601 5604 5604 5603 5606 5605 5611 5611 5616 5626 5633 5633 5633 5633 5632 5635 5636 5629 5629 5632 5631 5633
5491 5497 5502 5493 5496 5494 5494 5486 5496 5505 5512 5484 5497 5510 5522 5522 5529 5536 5550 5563 5569 5571 5578 5589 5594 5600 5602 5603 5602 5608 5609 5613 5619 5624 5625 5621 5623 5624 5628 5624 5622 5622 5624 5625
5514 5488 5504 5500 5499 5501 5499 5500 5494 5483 5474 5499 5500 5501 5504 5508 5515 5531 5543 5552 5559 5568 5571 5573 5577 5587 5594 5599 5602 5603 5605 5606 5612 5614 5616 5615 5617 5618 5620 5617 5615 5617 5618 5620
5514 5500 5498 5499 5490 5482 5489 5483 5483 5480 5487 5461 5453 5502 5499 5508 5515 5516 5530 5541 5550 5557 5562 5568 5573 5581 5585 5596 5603 5603 5603 5602 5603 5603 5604 5606 5609 5613 5615 5613 5612 5613 5611 5610
5518 5502 5468 5506 5504 5495 5491 5485 5471 5465 5471 5481 5464 5494 5501 5503 5515 5512 5518 5529 5541 5546 5550 5558 5566 5572 5579 5588 5593 5597 5600 5605 5603 5601 5599 5602 5605 5607 5611 5610 5610 5609 5606 5605
5523 5479 5435 5477 5487 5492 5483 5487 5490 5467 5455 5471 5454 5477 5503 5502 5512 5514 5510 5518 5527 5537 5542 5548 5555 5563 5570 5580 5585 5587 5589 5594 5599 5600 5600 5601 5600 5599 5602 5605 5606 5605 5601 5600
5528 5481 5466 5453 5468 5477 5479 5492 5494 5470 5438 5447 5471 5478 5493 5489 5505 5507 5501 5507 5514 5520 5527 5534 5543 5551 5558 5566 5572 5575 5582 5585 5591 5594 5594 5596 5598 5592 5593 5594 5596 5597 5601 5603
5515 5476 5491 5504 5502 5507 5499 5503 5502 5460 5476 5451 5488 5490 5495 5487 5488 5489 5496 5504 5509 5513 5520 5523 5528 5532 5542 5550 5559 5565 5571 5576 5581 5585 5585 5582 5584 5583 5587 5588 5589 5589 5590 5591
5510 5478 5464 5472 5512 5503 5510 5514 5515 5511 5509 5504 5497 5496 5489 5491 5487 5481 5484 5492 5497 5502 5506 5509 5516 5520 5529 5531 5542 5549 5556 5562 5570 5573 5574 5571 5568 5571 5572 5580 5579 5576 5577 5578
5505 5479 5470 5492 5503 5491 5485 5527 5526 5529 5523 5516 5488 5504 5496 5500 5493 5483 5481 5481 5486 5490 5496 5500 5501 5507 5513 5521 5527 5533 5541 5551 5558 5560 5560 5562 5561 5563 5563 5566 5571 5567 5567 5569
5510 5485 5483 5474 5477 5487 5534 5545 5542 5531 5527 5521 5515 5506 5500 5506 5495 5483 5480 5479 5479 5482 5488 5493 5496 5501 5504 5511 5518 5525 5533 5538 5542 5545 5547 5549 5551 5551 5553 5554 5558 5557 5556 5555
5509 5500 5487 5486 5470 5520 5546 5543 5539 5533 5534 5525 5517 5512 5512 5509 5502 5493 5489 5485 5482 5480 5481 5485 5489 5495 5498 5502 5507 5512 5518 5523 5526 5527 5532 5535 5538 5538 5539 5541 5541 5541 5539 5537
5514 5500 5489 5482 5501 5529 5559 5552 5547 5542 5523 5533 5524 5516 5511 5504 5501 5493 5496 5490 5487 5484 5481 5481 5482 5486 5491 5496 5501 5505 5506 5508 5510 5515 5519 5524 5527 5526 5528 5527 5526 5527 5526 5525
5480 5476 5486 5479 5484 5525 5547 5547 5546 5539 5547 5535 5527 5519 5512 5506 5502 5501 5499 5497 5492 5488 5487 5484 5480 5479 5479 5484 5489 5492 5496 5499 5501 5505 5508 5511 5514 5516 5518 5517 5514 5515 5514 5513
5521 5493 5485 5490 5489 5528 5548 5545 5540 5547 5546 5540 5530 5524 5517 5515 5510 5508 5504 5501 5497 5493 5492 5487 5481 5477 5474 5474 5476 5478 5480 5485 5490 5495 5500 5502 5502 5502 5502 5501 5500 5500 5500 5499
5521 5531 5528 5522 5536 5554 5551 5559 5554 5549 5547 5540 5534 5531 5523 5517 5511 5510 5504 5499 5494 5493 5491 5490 5483 5480 5476 5473 5471 5469 5468 5470 5474 5479 5481 5484 5488 5489 5489 5489 5486 5483 5483 5482
5532 5528 5531 5542 5560 5549 5554 5554 5553 5549 5547 5542 5538 5531 5524 5519 5512 5508 5503 5497 5494 5492 5489 5488 5488 5481 5475 5472 5469 5466 5466 5467 5467 5467 5467 5470 5475 5479 5478 5476 5473 5470 5468 5467
5529 5526 5529 5525 5544 5546 5553 5552 5553 5548 5544 5538 5532 5528 5523 5517 5512 5507 5502 5497 5496 5493 5490 5487 5485 5481 5476 5470 5466 5461 5461 5461 5462 5460 5458 5458 5460 5459 5459 5460 5459 5459 5459 5457
5524 5535 5535 5547 5559 5562 5561 5563 5552 5542 5539 5536 5529 5523 5520 5515 5510 5507 5500 5498 5494 5491 5489 5486 5482 5477 5475 5473 5466 5459 5455 5453 5452 5450 5448 5445 5446 5446 5445 5443 5443 5444 5444 5444